Flag for Switzerland Weather past 2 weeks in Vernier, Geneva, Switzerland

Now
43 °F

Clear.


Feels Like: 43 °F
Forecast: 33 / 59 °F
Wind: 2 mph from North

Location: Geneva Cointrin Airport


UV Index: 3 (Moderate)

Visibility: 10 mi


Pressure: 30.21 "Hg

Humidity: 57%

Dew point: 28 °F

Location of VernierLocation

Historic Weather in Vernier

°F

Vernier temperature yesterday

Maximum temperature yesterday: 57 °F (at 5:20 PM)
Minimum temperature yesterday: 39 °F (at 7:20 AM)
Average temperature yesterday: 48 °F

Past Weeks' High & Low Weather Summary

 TemperatureHumidityPressure
High75 °F (Apr 7, 4:50 PM)100% (Apr 2, 5:50 AM)30.30 "Hg (Apr 2, 5:50 AM)
Low37 °F (Apr 10, 6:20 AM)21% (Apr 15, 3:50 PM)29.65 "Hg (Apr 3, 3:20 PM)
Average55 °F63%30.03 "Hg
* Reported Apr 2 1:20 AM — Apr 17 1:50 AM, Vernier, Weather by CustomWeather, © 2014

Note: Actual official high and low records may vary slightly from our data, if they occured in-between our weather recording intervals... More about our weather records

Advertising

Historic Weather Conditions — Data for Previous 24 hours

 ConditionsComfort  
Time TempWeatherWind HumidityBarometerVisibility
1:50 AM
Apr 17
45 °FPassing clouds.5 mph53%30.21 "HgN/A
1:20 AM46 °FPassing clouds.7 mph50%30.21 "HgN/A
12:50 AM46 °FPassing clouds.7 mph50%30.21 "HgN/A
12:20 AM46 °FPassing clouds.7 mph50%30.21 "HgN/A
11:50 PM
Apr 16
48 °FPassing clouds.9 mph46%30.21 "HgN/A
11:20 PM48 °FPassing clouds.10 mph46%30.21 "HgN/A
10:50 PM48 °FClear.10 mph46%30.21 "Hg10 mi
10:20 PM50 °FPassing clouds.12 mph43%30.21 "HgN/A
9:50 PM50 °FPassing clouds.12 mph43%30.21 "HgN/A
9:20 PM50 °FPassing clouds.9 mph40%30.21 "HgN/A
8:50 PM52 °FPassing clouds.10 mph38%30.18 "HgN/A
8:20 PM52 °FPassing clouds.12 mph38%30.18 "HgN/A
7:50 PM54 °FPassing clouds.13 mph35%30.18 "HgN/A
7:20 PM55 °FPassing clouds.14 mph33%30.18 "HgN/A
6:50 PM57 °FPassing clouds.12 mph33%30.18 "HgN/A
6:20 PM57 °FPassing clouds.14 mph33%30.18 "HgN/A
5:50 PM57 °FPassing clouds.15 mph33%30.18 "HgN/A
5:20 PM57 °FPassing clouds.16 mph36%30.18 "HgN/A
4:50 PM55 °FSunny.17 mph38%30.18 "Hg10 mi
4:20 PM55 °FSunny.16 mph36%30.18 "Hg10 mi
3:50 PM55 °FPassing clouds.13 mph36%30.18 "HgN/A
3:20 PM55 °FPassing clouds.13 mph36%30.18 "HgN/A
2:50 PM54 °FPassing clouds.15 mph41%30.18 "HgN/A
2:20 PM54 °FPassing clouds.15 mph41%30.18 "HgN/A
1:50 PM52 °FPassing clouds.18 mph47%30.18 "HgN/A
1:20 PM52 °FPassing clouds.18 mph47%30.18 "HgN/A
12:50 PM50 °FPassing clouds.17 mph47%30.21 "HgN/A
12:20 PM48 °FPassing clouds.17 mph50%30.18 "HgN/A
11:50 AM48 °FPassing clouds.16 mph50%30.18 "HgN/A
11:20 AM46 °FPassing clouds.17 mph53%30.18 "HgN/A
10:50 AM46 °FPassing clouds.15 mph57%30.18 "HgN/A
10:20 AM46 °FPassing clouds.16 mph53%30.21 "HgN/A
9:50 AM45 °FPassing clouds.16 mph53%30.21 "HgN/A
9:20 AM45 °FPassing clouds.17 mph53%30.21 "HgN/A
8:50 AM43 °FPassing clouds.17 mph57%30.21 "HgN/A
8:20 AM43 °FPassing clouds.10 mph53%30.21 "HgN/A
7:50 AM41 °FPassing clouds.12 mph57%30.21 "HgN/A
7:20 AM39 °FPassing clouds.6 mph61%30.21 "HgN/A
6:50 AM41 °FPassing clouds.8 mph57%30.21 "HgN/A
6:20 AM41 °FPassing clouds.9 mph57%30.21 "HgN/A
5:50 AM41 °FPassing clouds.10 mph57%30.21 "HgN/A
5:20 AM41 °FPassing clouds.12 mph57%30.21 "HgN/A
4:50 AM41 °FPassing clouds.12 mph57%30.21 "HgN/A
4:20 AM43 °FPassing clouds.13 mph57%30.21 "HgN/A
3:50 AM43 °FPassing clouds.12 mph57%30.21 "HgN/A
2:50 AM45 °FPassing clouds.14 mph53%30.21 "HgN/A
Weather by CustomWeather, © 2014

See weather overview